Location: Newark
(0.5333°S, 166.9167°E)
Time: 08:44:58
(UTC+00:00)

AO-7 - Visible Passes

Search period start: 12 November 2019 00:00
Search period end: 22 November 2019 00:00
Orbit: 1439 x 1459 km, 101.8° (Epoch: 11 November)

Date Brightness Start Highest point End Pass type
(mag) Time Alt. Az. Time Alt. Az. Time Alt. Az.
12 Nov ? 15:25:07 10° NE 15:32:47 41° ESE 15:40:28 10° S visible
12 Nov ? 17:18:32 10° NNW 17:25:08 27° WNW 17:31:49 10° SW visible
13 Nov ? 14:30:45 10° E 14:33:16 12° ESE 14:35:47 10° SE visible
13 Nov ? 16:17:09 10° NNE 16:25:28 80° WNW 16:33:51 10° SSW visible
14 Nov ? 15:18:23 10° NE 15:25:48 36° ESE 15:33:14 10° S visible
14 Nov ? 17:11:11 10° NNW 17:18:11 31° WNW 17:25:14 10° SW visible
15 Nov ? 16:10:09 10° NNE 16:18:29 89° WNW 16:26:54 10° SSW visible
16 Nov ? 15:11:44 10° NE 15:18:51 32° ESE 15:25:57 10° SSE visible
16 Nov ? 17:03:53 10° NNW 17:11:12 35° WNW 17:18:35 10° SW visible
17 Nov ? 16:03:11 10° NNE 16:11:31 82° ESE 16:19:54 10° SSW visible
17 Nov ? 18:01:52 10° WNW 18:03:48 11° WNW 18:05:44 10° W visible
18 Nov ? 15:05:07 10° NE 15:11:53 28° ESE 15:18:38 10° SSE visible
18 Nov ? 16:56:39 10° N 17:04:13 40° WNW 17:11:53 10° SW visible
19 Nov ? 15:56:15 10° NNE 16:04:33 73° ESE 16:12:53 10° S visible
19 Nov ? 17:53:18 10° NW 17:56:50 13° WNW 18:00:26 10° W visible
20 Nov ? 14:58:35 10° ENE 15:04:55 24° ESE 15:11:14 10° SSE visible
20 Nov ? 16:49:27 10° N 16:57:15 46° WNW 17:05:07 10° SW visible
21 Nov ? 15:49:20 10° NNE 15:57:34 65° ESE 16:05:50 10° S visible
21 Nov ? 17:45:20 10° NW 17:49:53 16° WNW 17:54:29 10° WSW visible
